Temp
25 25 25 24 24 24 24 24 24 25 24 22 23 22 22 23 22 22 22 23 25 26 27 26 25 25 24 21 19 18 19 20 21 20 18 17 17 18 19 19 20 19 19 19
25 25 25 24 24 24 24 24 24 24 24 23 23 22 23 23 22 21 22 22 23 24 25 26 25 25 24 22 19 17 18 19 19 19 17 17 17 18 19 19 19 18 18 17
24 25 24 24 24 24 24 23 22 22 23 23 23 22 22 22 21 19 19 20 21 22 23 25 25 24 24 22 20 19 17 19 19 18 16 16 16 16 16 17 17 16 16 16
25 24 23 24 24 23 23 23 21 22 22 23 23 22 22 21 19 18 18 17 19 20 22 24 24 24 24 23 21 19 19 19 19 17 15 15 15 14 14 14 14 15 15 15
24 23 23 23 23 23 23 23 21 22 22 23 23 21 22 20 16 16 16 16 16 16 18 21 24 24 24 24 23 19 18 17 17 16 16 16 15 15 14 14 13 13 13 14
23 23 22 23 23 23 23 24 22 22 23 22 22 19 21 17 15 14 15 14 14 14 15 18 23 24 23 23 20 17 17 15 16 16 15 15 15 14 13 11 11 10 10 10
25 24 23 22 23 24 23 23 21 22 22 22 22 20 19 18 16 15 14 13 13 13 13 15 24 23 23 21 18 17 16 16 15 15 14 14 14 14 13 12 10 10 10 9
23 23 23 23 22 21 22 21 19 16 20 20 22 19 19 19 18 17 14 13 12 12 12 13 17 19 19 18 15 15 15 14 15 15 13 14 15 13 11 10 10 9 10 10
22 23 23 21 22 22 22 22 20 17 19 19 22 22 21 21 21 19 16 13 12 12 12 12 12 15 15 14 14 14 14 13 13 13 13 12 12 12 11 11 10 10 10 10
22 21 23 22 21 21 22 21 21 21 18 20 24 22 21 21 19 19 16 13 12 12 11 11 11 11 11 13 14 14 13 13 13 13 13 12 12 12 12 11 11 10 10 10
22 21 23 22 22 22 22 23 23 21 21 20 22 22 22 21 19 19 17 13 12 11 11 10 10 10 10 11 13 12 11 12 12 12 12 12 12 11 11 11 10 10 9 9
21 21 22 23 22 21 21 22 22 21 21 22 21 22 22 21 20 19 16 15 14 13 12 11 11 10 9 8 9 11 10 10 10 10 10 10 10 10 10 9 9 10 9 9
21 22 22 22 21 21 22 22 21 21 21 22 21 23 22 21 20 18 18 15 14 14 14 13 13 11 10 9 10 10 10 10 10 11 10 9 9 10 9 10 9 10 9 9
18 21 21 23 23 22 21 22 21 21 21 23 23 23 22 21 20 19 18 16 14 14 15 15 14 14 13 11 12 12 11 11 11 10 10 10 10 10 10 11 11 11 11 10
19 20 21 22 22 21 21 21 21 20 21 21 23 22 23 21 21 19 18 18 17 15 15 16 16 15 13 13 12 12 12 12 11 11 10 10 10 10 10 10 10 10 10 10
19 20 20 20 22 20 20 21 21 21 21 21 22 22 23 22 21 20 19 18 17 17 16 16 16 16 15 13 13 12 12 12 12 11 11 10 10 10 10 10 9 9 9 9
20 20 20 22 22 22 22 23 22 22 22 22 22 23 22 20 20 20 19 19 18 17 16 16 16 16 15 14 14 13 13 12 12 11 11 11 10 10 10 9 9 8 9 8
19 19 19 20 22 21 22 22 22 22 23 23 22 21 21 21 21 21 20 19 18 17 17 17 16 15 14 14 13 13 13 13 12 12 11 11 10 9 9 9 9 8 8 8
18 19 19 19 21 23 23 21 20 21 23 23 22 22 21 20 20 20 20 20 19 18 17 16 15 14 14 13 13 13 12 12 12 11 11 10 10 9 9 8 8 7 7 7
17 18 19 20 18 20 22 21 21 21 21 23 23 22 20 19 19 22 20 20 19 18 17 16 15 14 14 13 13 12 12 12 11 10 9 9 9 8 8 7 6 6 6 6
16 17 17 19 19 21 23 20 20 20 21 21 22 22 21 19 21 21 20 19 19 18 16 15 14 14 13 12 12 12 12 11 10 9 8 8 8 7 6 6 6 6 5 5
19 18 18 20 19 19 22 19 21 22 21 21 21 21 21 21 18 19 20 19 18 17 15 14 14 14 13 12 12 12 12 9 9 8 8 7 7 6 6 5 5 5 5 5
20 22 21 21 21 21 21 21 22 22 22 21 21 21 20 20 19 18 18 18 17 16 15 14 14 13 12 12 12 12 10 9 8 8 7 7 6 5 5 5 5 5 4 4
20 22 20 19 23 21 20 21 20 20 21 22 21 21 20 20 20 18 17 17 16 15 14 14 14 12 12 12 12 11 9 8 8 8 7 6 6 5 5 4 4 4 4 4
22 20 20 20 22 20 20 21 21 20 20 20 20 20 20 20 20 19 18 17 16 15 14 13 13 12 11 11 11 9 8 8 8 7 7 6 5 5 5 4 3 3 3 1
19 20 21 22 24 23 23 22 21 19 20 20 19 19 19 19 19 19 18 16 15 14 13 13 12 12 11 10 9 8 7 7 7 7 6 6 5 4 4 4 4 2 1 1
Height
773 779 780 778 777 778 775 770 765 757 759 765 760 760 760 755 754 754 753 745 736 728 726 730 734 734 736 745 746 739 739 760 763 769 778 787 792 796 801 806 809 813 815 818
778 776 776 776 774 772 768 766 764 757 756 762 758 759 755 752 756 757 753 750 743 738 734 727 731 731 734 740 745 741 751 755 764 758 772 781 789 795 800 806 809 813 815 815
783 775 776 776 773 773 768 771 772 772 758 754 753 757 757 756 760 765 762 757 747 740 735 730 728 729 730 736 737 747 720 753 757 761 769 778 786 793 798 805 810 812 814 814
777 774 781 777 773 775 777 768 772 768 766 764 755 766 753 761 768 770 766 765 754 747 739 731 729 729 726 729 738 742 750 752 757 761 767 774 783 791 797 801 805 810 812 812
783 782 783 780 777 774 773 767 772 767 764 760 759 771 756 762 777 775 768 764 760 755 748 735 726 725 726 725 732 747 747 729 752 756 767 778 783 790 797 801 804 805 808 809
781 779 782 779 774 770 767 759 763 765 760 770 767 780 761 781 787 779 771 766 763 757 751 739 725 724 727 729 733 738 747 756 747 754 770 779 785 789 795 798 799 803 806 808
773 779 778 781 777 765 768 762 777 774 775 773 766 773 779 778 779 778 775 771 765 761 753 744 724 726 729 736 741 743 745 743 758 758 769 777 785 790 794 797 799 801 803 807
789 788 781 780 783 787 778 780 800 816 793 788 767 786 780 774 770 770 773 773 770 764 759 750 740 737 740 745 748 752 755 757 766 769 776 779 785 791 797 800 802 805 805 806
791 786 779 783 782 783 779 785 789 803 794 792 766 764 766 763 764 765 772 773 772 769 764 759 754 751 751 752 755 759 764 768 773 776 780 785 792 794 799 803 803 807 807 810
789 795 779 781 782 783 784 784 787 781 806 788 755 764 773 768 771 768 773 780 778 773 769 766 764 762 760 758 761 765 770 775 779 782 786 791 795 798 802 805 806 808 808 809
790 792 783 782 782 783 781 779 777 783 784 788 775 770 767 770 773 774 778 785 784 781 778 777 775 772 770 769 769 771 775 779 782 787 790 794 798 801 803 806 808 808 810 811
790 790 787 778 779 782 783 783 781 787 786 773 777 774 764 768 772 775 783 784 786 785 784 783 782 781 780 781 783 783 783 785 789 793 796 800 802 804 807 810 811 812 813 814
792 786 785 785 789 784 783 780 786 783 784 773 780 769 765 767 772 779 779 787 789 789 787 786 786 789 790 790 789 790 791 793 795 798 801 804 807 810 813 813 816 817 819 821
799 789 787 781 777 778 785 780 783 786 788 771 764 768 765 770 774 779 782 787 791 792 791 790 793 793 794 796 797 798 801 801 804 806 808 810 815 816 819 821 822 824 825 827
797 791 782 778 776 777 779 781 781 784 778 782 767 772 765 768 772 777 782 784 788 791 792 793 794 796 799 800 803 806 806 806 810 813 815 818 820 823 823 826 826 827 829 830
794 790 787 782 768 778 781 775 775 775 774 773 770 770 759 766 770 777 779 784 788 791 794 795 796 799 802 805 807 809 810 812 814 817 820 821 824 826 827 828 830 830 832 833
791 789 787 775 770 770 769 759 760 765 764 765 769 761 763 772 773 774 778 783 787 791 795 797 799 801 804 807 809 812 813 815 817 819 823 825 827 829 830 831 833 834 834 836
788 791 792 783 771 775 762 757 757 760 758 758 762 764 765 767 770 771 775 779 786 792 796 799 802 805 808 810 812 814 816 818 820 823 825 827 829 830 831 833 834 834 834 836
789 787 791 789 773 755 755 759 765 765 754 749 756 759 764 767 771 774 774 777 782 788 794 800 805 808 810 812 814 816 818 820 822 824 827 829 830 832 832 833 834 835 835 836
792 791 792 782 790 778 753 758 758 760 765 745 748 756 763 769 774 762 771 776 781 787 792 797 802 806 810 814 816 817 819 821 823 825 827 829 830 832 833 833 834 835 835 836
792 792 791 783 783 763 744 756 759 769 762 750 749 752 760 767 761 759 766 775 780 786 791 796 801 804 808 812 815 818 821 823 826 827 828 830 831 832 833 834 834 833 834 834
769 777 780 774 778 777 745 760 761 748 750 750 751 752 757 760 765 765 767 772 779 785 791 796 799 802 807 810 813 817 820 824 826 827 829 830 831 832 834 834 835 834 834 834
759 742 751 753 750 741 742 742 742 743 743 749 750 752 755 759 763 767 769 771 775 782 788 793 797 801 806 809 811 815 819 823 826 827 829 831 832 833 834 835 835 834 833 833
742 735 747 751 732 739 741 740 742 743 743 744 746 749 753 755 758 763 767 769 773 778 784 789 794 799 804 808 811 813 818 820 824 827 829 831 832 833 834 834 834 833 833 834
724 737 737 737 732 736 735 733 735 739 741 742 743 746 749 751 752 756 761 764 767 773 780 784 789 795 801 805 809 813 816 819 822 825 828 830 832 833 834 834 834 835 835 835
723 724 725 721 716 721 719 722 727 735 736 738 740 741 744 746 747 750 755 759 763 768 775 780 785 790 797 802 806 811 814 817 820 823 827 829 831 833 833 833 834 834 834 834
Wind_Speed
1 9 6 9 9 11 13 14 14 11 7 10 11 8 5 6 5 8 12 11 13 13 6 5 11 16 16 15 24 25 26 23 27 24 20 18 20 21 16 15 16 17 18 18
7 3 6 9 11 13 15 12 13 7 3 8 12 4 3 10 12 15 11 11 11 11 12 13 10 13 15 17 26 44 32 33 30 27 23 19 22 16 14 13 14 16 18 18
8 6 6 9 11 13 14 9 15 15 13 7 16 8 8 17 13 15 18 19 15 13 11 12 6 11 12 18 23 23 28 30 30 25 25 24 24 19 14 14 13 16 18 21
6 3 6 10 10 12 11 17 13 8 7 7 10 3 7 16 15 18 16 16 16 13 14 10 10 11 13 16 16 17 23 25 27 26 23 27 18 15 12 20 20 19 18 24
5 6 8 9 11 11 10 14 8 6 9 7 12 5 5 19 16 22 20 15 14 12 13 14 10 11 12 11 10 16 8 11 21 25 22 19 14 13 13 20 20 23 25 26
5 3 3 7 14 7 14 14 5 6 8 1 13 5 5 12 12 17 16 16 14 15 14 14 8 7 7 7 8 10 15 6 20 25 19 14 9 8 11 14 19 22 25 27
5 4 1 6 13 3 15 14 3 2 4 7 13 3 7 12 11 11 12 14 14 13 14 14 4 7 7 11 15 13 16 21 15 22 18 17 11 5 8 14 19 22 20 16
4 4 4 8 6 7 8 7 3 2 5 6 8 8 6 9 5 8 14 14 13 14 12 13 11 14 10 13 21 25 24 22 18 19 25 23 14 10 6 8 7 10 14 12
4 0 3 4 4 7 9 7 3 2 5 5 2 9 5 10 14 16 16 16 16 14 13 13 14 15 14 18 22 26 24 21 22 25 22 17 15 12 5 4 6 9 8 10
3 4 3 2 2 3 4 3 2 1 4 5 3 9 8 14 15 15 17 16 14 13 14 13 13 18 21 22 24 26 26 26 26 21 19 17 13 14 11 6 7 8 7 10
4 3 5 3 1 5 2 2 3 3 2 4 7 7 8 10 10 12 13 11 13 13 13 12 13 19 21 24 23 25 28 26 26 23 19 15 13 11 11 10 9 7 6 7
3 5 4 2 4 1 3 4 6 4 6 4 4 4 7 7 8 9 10 10 10 11 9 9 15 19 22 21 21 21 22 24 22 21 22 20 19 19 18 16 14 13 13 10
1 3 5 8 4 3 4 1 4 6 4 7 4 4 4 5 8 7 9 10 9 10 10 10 15 16 17 18 20 23 24 24 25 25 25 23 22 20 18 20 18 18 17 15
1 6 8 7 7 5 9 8 6 6 4 8 3 5 4 4 4 7 8 8 9 8 8 12 11 15 17 18 19 21 20 22 21 22 23 22 19 20 18 17 16 16 15 14
4 6 6 11 11 11 13 12 12 13 12 7 8 6 3 1 4 6 8 8 9 10 9 10 11 14 17 20 20 19 20 21 20 20 21 19 17 15 16 15 14 14 12 12
4 4 6 12 7 5 10 9 10 12 12 12 13 12 0 6 7 7 8 9 9 9 9 10 11 15 16 17 17 17 18 18 18 18 17 16 15 14 13 12 11 11 10 9
4 3 4 3 2 8 11 4 11 12 7 9 6 5 8 7 7 8 9 9 10 10 10 10 10 13 15 15 15 16 15 15 15 15 14 13 12 11 10 9 8 8 7 6
4 5 3 5 8 4 4 3 2 9 6 8 6 3 6 5 6 8 10 11 11 11 11 10 12 12 13 13 14 14 14 14 14 13 12 10 9 8 8 7 7 6 6 5
7 5 4 3 4 11 1 4 4 7 5 9 11 7 8 6 6 7 10 11 12 13 14 13 12 12 12 12 12 13 12 12 12 11 9 7 7 6 6 6 6 5 5 5
7 8 5 2 3 3 6 5 3 1 7 4 8 10 11 10 7 7 14 12 13 17 17 17 17 16 14 12 12 11 10 10 9 8 7 6 6 5 5 5 4 4 5 5
6 6 11 9 5 6 4 8 5 4 3 2 7 9 12 11 1 7 15 13 17 18 18 18 18 16 15 15 13 11 10 9 8 8 6 6 5 5 4 3 4 5 6 6
10 9 6 7 6 7 11 7 5 5 4 5 7 7 10 10 5 7 12 13 16 18 20 20 19 17 16 16 14 12 10 9 8 7 7 6 5 4 3 2 2 3 4 5
7 7 4 9 5 4 15 2 7 3 5 5 7 7 8 9 9 9 11 13 16 20 21 21 19 18 17 17 15 14 13 11 9 7 7 5 4 3 2 1 1 2 4 6
10 10 4 3 11 12 9 12 7 8 8 6 7 7 9 10 11 12 11 12 15 21 22 22 21 20 19 17 15 13 14 12 10 8 7 6 4 3 1 1 2 3 3 4
5 13 12 9 9 2 9 14 14 12 12 12 11 11 11 11 11 13 13 13 18 20 22 23 22 21 20 19 16 15 15 13 11 9 8 7 5 4 2 1 0 1 2 2
8 9 10 8 8 11 8 11 13 12 12 13 13 12 11 11 12 12 12 17 19 21 23 23 23 22 22 20 18 17 15 13 12 11 9 8 6 4 3 2 2 3 3 5
Wind_Direction
266 281 7 340 338 323 309 306 303 347 20 326 356 324 33 19 347 345 337 316 304 291 267 273 254 233 222 207 238 229 170 177 176 169 175 182 184 182 184 183 184 178 172 170
222 263 4 316 307 311 313 316 339 304 214 303 336 222 148 46 28 358 329 324 307 291 278 252 222 240 212 199 193 206 181 183 186 170 172 175 172 169 171 179 172 176 173 167
293 18 332 315 316 340 325 346 326 303 313 243 333 185 225 25 21 8 348 344 317 317 287 275 256 256 221 198 205 194 183 186 180 172 162 170 168 156 147 167 172 177 179 171
283 25 312 322 324 344 306 359 322 289 290 347 27 321 62 17 5 358 353 336 325 323 306 276 247 252 247 214 199 210 201 193 183 160 150 159 154 153 175 170 185 177 176 180
69 327 329 310 347 330 312 324 323 305 285 324 12 317 335 15 351 341 338 348 339 326 319 300 263 229 246 237 202 190 178 234 171 148 165 157 141 161 192 198 199 190 189 188
286 329 288 324 315 294 300 309 216 277 265 255 15 16 338 10 336 325 351 350 352 340 333 311 264 230 220 214 145 134 160 162 149 143 146 164 182 179 180 198 202 201 198 191
264 172 10 323 322 189 354 352 5 333 3 26 2 326 43 351 352 357 349 359 356 352 346 331 184 171 175 106 107 124 127 136 150 142 171 178 175 192 233 224 213 201 195 198
321 194 4 9 4 326 333 334 36 299 353 330 312 5 14 334 82 47 15 16 15 5 357 360 30 54 79 98 102 119 121 120 147 136 123 114 111 153 182 189 214 213 198 196
326 291 120 23 336 342 353 13 358 299 209 264 231 64 165 26 23 24 30 15 18 8 12 17 29 45 66 85 104 117 123 129 130 122 127 115 129 127 145 180 177 191 194 201
57 282 125 40 261 194 326 331 264 130 335 324 26 60 5 6 11 18 28 21 11 12 24 28 29 38 48 70 88 93 102 111 112 109 110 108 106 98 113 123 152 184 197 204
312 265 139 189 179 345 247 353 343 270 351 331 322 69 11 12 19 24 40 24 18 22 27 30 42 44 54 65 73 81 88 91 97 106 105 102 101 104 111 113 107 120 143 164
45 312 281 9 99 226 308 337 325 329 345 303 264 71 30 37 53 37 60 38 38 44 57 49 53 57 57 65 71 81 86 88 91 96 97 92 93 95 91 90 90 94 96 109
51 202 279 158 169 177 240 319 294 305 267 276 315 68 34 56 74 62 65 59 54 50 60 60 70 64 70 70 74 79 83 90 96 100 97 90 88 86 88 87 85 86 89 94
297 265 266 296 340 311 285 289 238 287 274 341 298 358 85 73 91 98 92 93 85 65 67 88 85 85 87 83 81 86 92 95 94 93 93 92 91 92 91 92 92 92 96 98
251 263 266 278 280 277 279 273 265 243 255 280 356 316 357 109 129 117 127 126 111 98 86 87 93 96 97 94 92 95 95 95 100 98 92 95 94 92 91 89 88 89 88 90
199 279 288 288 253 246 262 259 246 243 253 260 275 283 87 132 136 150 141 141 136 126 124 119 114 111 105 104 103 100 101 102 102 102 99 95 95 91 87 86 83 82 81 80
219 274 299 273 212 282 265 271 230 230 231 231 256 52 153 170 175 170 156 158 151 147 143 141 132 122 121 120 119 115 113 111 106 106 107 106 103 99 94 93 98 93 84 77
226 239 275 285 300 236 87 89 351 218 242 226 239 186 190 189 186 177 170 170 159 157 157 151 142 133 129 125 122 120 119 118 116 112 107 103 101 99 95 92 86 75 69 53
229 226 270 268 288 290 161 171 218 214 243 217 224 192 186 159 166 198 185 185 168 167 164 161 156 149 144 139 133 129 126 124 121 116 109 101 95 94 91 83 70 54 35 16
201 242 252 206 271 265 91 144 155 225 260 148 205 182 176 167 199 215 180 184 169 171 168 164 161 159 156 153 148 142 138 133 123 114 106 97 91 86 78 67 52 30 10 358
168 196 219 230 253 273 151 146 159 228 65 149 188 175 176 195 71 91 159 175 175 174 171 168 168 169 164 162 160 156 153 143 135 130 122 115 108 100 80 53 23 11 5 354
171 174 193 209 220 251 141 136 219 99 115 150 181 178 188 201 131 155 169 172 177 176 174 175 174 173 170 170 168 164 159 150 145 139 135 130 119 102 76 41 19 11 4 353
207 204 193 200 221 122 178 45 175 195 160 172 190 193 199 204 194 183 181 181 184 184 181 182 180 173 175 177 177 171 160 160 157 153 149 145 133 112 84 34 10 16 11 8
222 191 216 175 228 214 205 223 218 211 222 207 199 192 201 216 208 197 193 190 188 189 187 185 180 178 178 180 181 172 167 164 164 167 166 162 158 143 122 70 37 18 2 349
180 162 204 238 245 214 232 226 227 223 232 236 231 227 237 234 225 211 201 198 193 188 188 185 183 182 179 176 176 167 170 168 170 174 175 171 171 177 170 137 86 11 27 347
183 186 190 218 214 212 252 199 215 217 230 234 231 232 224 226 221 210 204 198 190 185 183 185 184 180 176 176 172 171 172 173 175 176 181 182 178 182 181 194 232 283 342 337